Location: Newark
(38.1089°N, 103.8675°W)
Time: 13:01:31
(UTC+00:00)

Envisat - Pass Details

Date: 18 December 2019
Orbit: 764 x 766 km, 98.1° (Epoch: 18 January)

Event Time Altitude Azimuth Distance (km) Brightness Sun altitude
Rises 13:05:05 0° 21° (NNE) 3,238 6.3 -11.8°
Reaches altitude 10° 13:07:33 10° 30° (NNE) 2,307 5.6 -11.3°
Maximum altitude 13:12:16 38° 98° (E) 1,164 4.7 -10.4°
Drops below altitude 10° 13:16:56 10° 165° (SSE) 2,292 6.0 -9.6°
Sets 13:19:23 0° 174° (S) 3,213 6.7 -9.1°
